SCP
-0 -0 -0 -0 0 0 0 -0 -0 -0 -0 -0 -0 -0 -0 -0 -0 -0 -0 -0 0 0 0 0 0 0 0 0 0 0 0 0 0 -0 -0 0 0 0 0 0 0 0 0
-0 -0 -0 -0 -0 -0 -0 0 -0 -0 0 -0 -0 -0 -0 -0 -0 -0 -0 -0 -0 -0 0 0 0 0 0 0 0 0 0 0 0 0 0 0 0 0 0 0 0 0 0
-0 -0 -0 -0 -0 -0 -0 -0 -0 0 0 0 0 -0 0 -0 -0 -0 0 0 0 0 0 0 0 0 0 0 0 0 0 1 0 0 0 0 0 0 0 0 0 0 0
-0 -0 -0 -0 -0 -0 -0 -0 -0 -0 0 0 0 0 0 0 0 0 0 0 0 0 0 0 0 0 0 0 0 0 1 1 1 0 0 0 1 0 0 0 0 0 0
-0 -0 -0 -0 -0 -0 -0 -0 -0 -0 -0 -0 0 0 0 0 0 0 0 0 0 0 0 0 0 0 0 0 0 0 1 1 1 0 0 1 1 1 0 0 0 0 0
0 0 -0 -0 -0 -0 -0 -0 -0 -0 -0 0 0 0 0 0 0 0 0 0 0 0 0 0 0 0 0 0 0 0 1 1 1 1 1 1 1 1 1 1 1 1 0
0 0 0 -0 -0 -0 -0 -0 -0 -0 -0 0 0 0 0 0 0 0 0 0 0 0 0 0 0 0 0 0 0 0 0 1 1 1 1 1 1 1 1 1 1 1 1
0 0 0 0 -0 -0 -0 -0 -0 -0 -0 0 0 0 0 0 0 0 0 0 0 0 0 0 0 0 0 0 0 0 0 0 1 0 0 0 1 1 1 1 1 1 1
0 0 0 0 0 0 -0 -0 -0 -0 -0 0 0 0 0 0 0 0 0 0 0 0 0 0 0 0 0 0 0 0 0 0 0 0 1 0 1 1 1 1 1 1 1
0 0 0 0 0 0 0 0 0 0 0 0 0 0 0 0 0 0 0 0 0 0 0 0 0 0 0 0 0 0 0 0 0 0 0 1 0 1 1 1 1 1 1
0 0 0 0 0 0 0 0 0 0 0 0 0 0 0 0 0 0 0 0 0 0 0 0 0 0 0 0 0 0 0 0 0 0 0 0 0 1 1 1 1 1 1
0 0 0 0 0 0 0 0 0 0 0 0 0 0 0 0 0 0 0 0 0 0 0 0 0 0 0 0 0 0 0 0 0 0 0 0 0 1 1 1 1 1 1
0 0 0 0 0 0 0 0 -0 -0 0 0 0 0 0 0 0 0 0 0 0 0 0 0 0 0 0 0 0 0 0 0 0 0 0 0 0 1 1 1 1 2 1
0 0 0 0 0 0 -0 -0 -0 -0 0 0 0 0 0 0 0 0 0 0 0 0 0 0 0 0 0 0 0 0 0 0 0 0 0 0 0 1 1 1 2 2 2
0 0 0 0 0 0 0 0 -0 -0 -0 0 0 0 0 0 0 0 0 0 0 0 0 0 0 0 0 0 0 0 0 0 0 0 0 0 0 0 1 1 2 2 2
0 0 0 0 0 0 0 0 -0 -0 -0 -0 -0 -0 0 0 0 0 0 0 0 0 0 0 0 -0 0 0 0 0 0 0 0 0 0 0 0 0 0 1 2 2 2
0 0 0 0 0 0 0 -0 -0 -0 -0 -0 -0 -0 -0 -0 -0 0 0 0 0 0 0 0 0 0 -0 0 0 0 0 0 0 0 0 0 0 0 0 0 1 2 2
0 0 0 0 0 0 0 -0 -0 -0 -0 -0 -0 -0 -0 -0 -0 -0 -0 -0 -0 0 0 0 0 0 0 -0 0 0 0 0 0 0 0 0 0 0 0 0 0 1 2
0 0 0 0 0 0 0 0 -0 -0 0 -0 -0 -0 -0 -0 0 -0 -0 -0 -0 0 0 0 0 0 -0 -0 -0 0 0 0 0 0 0 0 0 0 0 0 0 0 1
0 0 0 0 0 0 0 -0 0 -0 0 0 0 -0 0 0 0 0 0 0 0 -0 0 0 0 0 0 0 -0 -0 0 0 0 0 0 0 0 0 0 0 0 0 0
0 0 0 0 0 0 0 0 0 -0 0 0 0 0 0 0 0 0 0 0 0 0 0 0 0 0 0 0 -0 -0 -0 0 0 0 0 0 0 0 0 0 0 0 0
0 0 0 0 0 0 -0 -0 -0 -0 0 0 0 0 0 0 0 0 0 0 0 0 0 0 0 0 0 0 0 0 -0 0 0 0 0 0 0 0 0 0 0 0 0
0 0 0 0 0 0 0 -0 0 0 0 -0 0 0 0 0 0 0 0 0 0 0 0 0 0 0 0 0 0 0 -0 0 0 0 0 0 0 0 0 0 0 0 0
0 0 0 0 0 0 0 0 0 0 0 0 0 0 0 0 0 0 0 0 0 0 0 0 0 0 0 0 0 0 0 -0 -0 0 0 0 0 0 0 0 0 0 0
0 0 0 0 0 0 -0 0 0 0 0 0 0 0 0 0 0 0 0 0 0 0 0 0 0 0 0 0 0 0 0 -0 -0 0 0 0 0 0 0 0 0 0 0
0 0 0 0 0 0 0 0 0 0 0 0 0 0 0 0 0 0 0 0 0 0 0 0 0 0 0 0 0 0 0 -0 -0 -0 0 0 0 0 0 0 0 0 0
Wind_Speed_500mb
22 22 20 19 14 9 8 9 11 13 13 15 19 17 17 19 20 20 21 25 24 26 30 32 33 33 30 28 24 24 29 29 28 25 23 22 23 21 22 22 23 26 29
16 15 18 15 12 7 6 9 10 10 13 16 21 22 21 20 21 24 27 28 30 31 31 34 34 36 37 33 31 28 30 35 35 33 26 23 23 18 20 22 25 29 32
17 16 15 10 7 5 3 6 10 17 19 21 22 22 26 29 28 28 29 29 28 29 29 32 35 35 37 39 35 34 33 36 37 35 30 28 25 23 20 23 25 30 33
20 20 16 13 7 6 6 9 10 14 20 24 27 28 30 31 33 36 37 35 36 37 37 32 31 35 34 39 39 38 39 37 40 37 39 32 30 26 23 23 26 32 36
13 14 16 17 14 8 10 16 19 20 21 21 26 30 33 36 35 39 42 41 39 41 41 41 39 36 35 37 40 39 41 42 41 41 42 36 37 32 31 26 26 31 37
13 17 17 16 15 16 14 11 21 28 27 28 28 28 33 35 37 41 43 45 46 45 46 47 44 41 40 36 38 40 44 45 45 47 46 45 42 40 39 33 32 35 38
15 18 20 22 21 19 18 17 18 19 24 32 36 38 37 37 39 42 45 45 48 49 49 50 49 47 44 43 41 40 45 49 49 51 51 51 53 49 46 41 39 38 41
12 16 19 20 21 21 21 22 23 22 23 26 32 39 46 47 45 44 46 47 50 52 54 53 53 52 52 49 49 47 45 51 51 56 55 57 57 53 51 48 43 43 43
7 11 16 18 21 24 27 28 27 27 27 28 30 35 40 45 49 52 51 50 49 53 57 57 56 56 56 55 52 53 51 51 55 58 58 62 63 59 59 54 50 49 49
5 10 14 15 19 23 28 31 35 35 34 32 33 34 35 38 45 48 52 52 51 51 55 60 62 61 60 59 60 56 55 54 59 62 62 66 68 67 68 64 59 55 55
7 11 15 20 25 29 33 36 38 39 37 36 36 38 37 39 37 40 47 51 54 53 51 57 61 65 66 63 63 63 58 61 61 67 68 70 71 73 74 71 67 64 62
5 13 20 25 31 33 36 39 41 43 43 39 37 38 40 42 43 48 45 46 51 52 57 57 59 63 69 70 66 64 68 66 68 71 74 74 77 77 78 78 73 70 69
7 11 17 24 29 34 39 42 41 43 42 42 40 40 43 45 45 48 53 53 52 54 51 54 57 65 71 76 74 75 74 75 75 77 80 78 81 80 85 82 81 74 73
6 16 22 26 30 35 38 40 43 45 47 45 43 45 51 53 57 57 55 57 59 57 59 56 47 49 60 76 83 85 84 83 86 85 86 85 86 88 89 89 86 81 77
6 12 19 26 31 35 37 39 43 46 48 50 46 44 49 58 63 66 67 63 60 64 64 65 72 64 56 60 80 88 94 91 91 93 93 90 91 94 96 98 95 89 84
8 12 18 25 29 32 36 40 44 49 54 55 56 54 54 58 64 68 71 69 68 65 68 72 72 84 76 65 61 87 90 100 99 97 97 96 97 98 102 101 102 97 93
8 14 19 23 28 33 39 42 45 50 55 60 62 65 69 73 73 74 77 77 71 71 72 74 78 80 88 81 69 64 90 97 103 101 98 97 100 103 106 106 106 102 98
10 14 19 25 29 34 41 45 49 53 58 61 63 68 72 76 79 82 85 84 80 77 74 79 82 85 85 90 85 71 73 100 104 106 102 100 102 107 112 112 108 104 103
14 19 21 27 33 38 43 47 50 56 59 63 66 69 73 75 79 84 87 89 85 80 80 77 77 79 84 92 94 82 66 83 105 105 108 104 104 104 112 112 112 107 105
19 22 23 29 35 41 48 51 55 58 61 65 69 71 75 78 81 85 87 91 93 92 85 78 71 71 82 83 95 99 87 66 82 108 113 107 104 101 110 107 111 110 106
21 22 25 32 39 45 50 60 65 66 67 69 73 76 77 81 85 92 97 98 97 90 84 81 70 73 79 74 78 98 111 88 79 104 108 112 103 106 113 108 107 106 106
23 21 25 33 41 45 51 57 61 68 72 73 78 80 84 87 89 95 100 100 93 91 82 73 75 74 77 66 57 59 60 90 73 98 113 117 107 112 113 114 116 116 111
22 22 26 34 41 46 52 56 60 67 73 80 82 84 87 91 97 99 99 97 88 79 76 64 61 67 79 71 60 49 28 36 46 67 99 105 110 111 114 116 118 119 122
21 20 25 33 42 47 52 57 61 68 75 78 84 86 89 92 96 101 102 95 91 89 85 81 77 65 73 84 68 63 64 68 43 55 35 92 97 111 111 110 118 122 125
19 19 25 34 42 47 51 57 61 66 71 79 85 90 93 96 96 100 102 96 90 91 84 79 81 72 66 82 82 67 66 66 78 57 75 77 96 108 105 98 94 99 113
18 19 25 36 42 47 53 56 60 66 72 79 85 92 95 98 100 101 101 101 91 87 72 68 70 77 76 66 79 82 76 60 58 70 71 73 101 89 105 116 104 99 89
Wind_Direction_500mb
11 12 8 12 13 348 328 301 298 299 303 312 314 308 297 293 292 288 286 287 279 272 272 273 274 275 274 276 267 244 250 252 252 254 244 251 254 235 228 224 216 207 197
6 1 9 17 22 23 319 300 308 296 294 300 307 304 300 291 287 289 292 292 294 292 282 273 270 273 276 271 271 258 245 249 245 253 250 252 253 237 223 218 214 208 199
342 336 339 4 25 34 321 308 300 305 304 301 300 298 299 298 292 290 293 292 293 298 298 291 278 268 271 273 267 260 250 251 249 243 248 247 245 239 222 215 206 206 203
336 333 344 335 329 272 229 235 278 287 287 291 294 294 293 292 290 290 293 292 293 295 296 295 283 274 267 269 266 259 253 250 251 245 242 239 239 230 221 210 207 204 202
326 351 1 338 326 293 246 232 240 255 264 285 285 289 288 288 288 286 287 288 288 290 291 292 292 279 268 262 264 257 251 252 251 244 244 242 232 226 221 211 208 203 205
349 5 6 8 0 348 332 284 263 263 259 261 269 275 278 281 281 281 280 283 283 284 286 288 287 284 274 266 264 259 249 251 251 248 239 240 231 227 221 218 217 212 208
58 57 55 51 43 28 15 357 335 310 296 285 278 273 274 276 275 276 281 281 282 282 281 282 284 283 276 270 264 264 254 249 251 248 242 235 232 228 223 220 216 219 213
60 55 51 45 39 34 28 19 9 352 328 303 286 279 273 273 273 276 276 278 280 280 280 280 279 278 276 273 269 264 264 251 251 250 243 236 233 225 222 221 220 216 212
62 59 50 37 25 14 6 357 348 336 325 322 313 298 282 278 273 272 276 277 278 278 278 278 276 274 273 271 267 265 263 259 252 250 244 237 232 224 222 220 221 219 213
87 52 41 25 14 4 356 349 342 332 318 305 298 297 301 292 278 274 271 271 271 274 279 279 275 272 271 268 266 264 262 259 254 251 245 239 231 227 221 221 223 222 216
54 29 15 10 6 3 357 349 342 336 327 319 307 296 291 292 298 283 273 273 268 268 272 276 276 274 272 268 265 264 260 259 255 250 247 240 233 230 222 221 223 223 220
1 5 7 3 1 0 360 357 351 346 342 336 329 323 314 304 298 295 294 288 275 271 267 267 269 270 267 269 264 261 260 260 258 253 248 243 239 227 224 222 225 223 221
351 353 356 358 359 1 3 1 356 353 346 343 340 336 333 327 316 303 293 293 292 279 277 274 269 270 268 266 264 262 260 260 259 257 251 245 240 227 225 224 225 223 221
342 358 3 1 1 2 2 356 354 352 352 351 346 339 336 331 329 324 315 304 297 292 286 277 281 279 278 271 264 260 261 260 258 256 254 248 240 231 226 225 225 226 223
329 334 349 351 356 356 353 351 352 352 350 349 345 340 334 333 332 326 322 315 302 298 294 284 275 276 278 279 272 264 259 259 258 255 254 251 244 235 229 226 226 227 227
338 338 347 350 352 349 350 352 353 350 348 344 341 342 340 335 331 329 325 319 311 303 299 295 286 274 276 275 280 270 266 258 259 257 253 250 245 238 232 228 228 229 229
327 333 340 348 350 348 350 351 350 347 342 339 339 338 339 339 336 331 327 324 317 306 299 294 292 286 276 271 277 278 268 264 256 259 255 249 245 238 233 232 230 230 229
322 331 340 342 343 346 346 346 346 343 339 335 336 338 338 337 336 331 328 326 322 313 300 292 293 291 285 277 275 272 272 265 261 257 256 249 243 240 235 232 233 228 230
300 322 329 337 339 341 342 342 342 338 336 336 336 335 335 333 331 329 326 324 321 311 305 298 286 289 289 282 276 271 271 263 259 260 254 250 241 241 235 232 233 230 227
287 313 325 337 339 339 339 338 336 335 334 333 334 334 335 333 329 326 322 319 320 314 301 292 288 278 281 287 283 274 268 259 263 256 254 248 239 237 234 234 232 231 230
280 304 324 334 336 337 338 336 335 336 335 333 331 333 334 335 334 331 329 327 322 314 303 282 283 280 276 282 293 280 268 267 259 248 248 244 241 230 233 233 234 227 226
276 306 324 333 336 336 337 337 336 333 332 331 331 332 335 336 334 332 330 327 321 312 304 293 271 281 278 276 280 289 291 270 273 242 238 240 241 234 230 232 233 229 227
275 305 323 333 334 334 334 332 330 326 325 327 329 331 331 332 333 331 330 327 320 309 300 288 278 276 271 268 266 269 281 246 293 239 238 236 239 236 231 231 230 229 228
268 302 320 329 332 333 333 331 329 327 326 325 325 326 327 328 328 330 329 325 316 308 297 277 271 268 270 263 264 257 262 252 260 286 240 229 237 232 233 229 231 228 227
263 296 316 330 332 331 333 330 326 323 321 321 323 323 326 324 326 328 326 321 312 304 297 283 271 269 268 263 260 254 264 261 253 249 275 287 222 227 231 226 220 221 225
269 298 319 329 329 331 329 327 325 322 321 322 324 322 323 323 324 326 323 317 311 301 295 285 275 259 261 260 259 253 259 260 255 239 252 272 261 209 220 216 213 215 216
Wind_Speed_850mb
22 22 20 19 14 9 8 9 11 13 13 15 19 17 17 19 20 20 21 25 24 26 30 32 33 33 30 28 24 24 29 29 28 25 23 22 23 21 22 22 23 26 29
16 15 18 15 12 7 6 9 10 10 13 16 21 22 21 20 21 24 27 28 30 31 31 34 34 36 37 33 31 28 30 35 35 33 26 23 23 18 20 22 25 29 32
17 16 15 10 7 5 3 6 10 17 19 21 22 22 26 29 28 28 29 29 28 29 29 32 35 35 37 39 35 34 33 36 37 35 30 28 25 23 20 23 25 30 33
20 20 16 13 7 6 6 9 10 14 20 24 27 28 30 31 33 36 37 35 36 37 37 32 31 35 34 39 39 38 39 37 40 37 39 32 30 26 23 23 26 32 36
13 14 16 17 14 8 10 16 19 20 21 21 26 30 33 36 35 39 42 41 39 41 41 41 39 36 35 37 40 39 41 42 41 41 42 36 37 32 31 26 26 31 37
13 17 17 16 15 16 14 11 21 28 27 28 28 28 33 35 37 41 43 45 46 45 46 47 44 41 40 36 38 40 44 45 45 47 46 45 42 40 39 33 32 35 38
15 18 20 22 21 19 18 17 18 19 24 32 36 38 37 37 39 42 45 45 48 49 49 50 49 47 44 43 41 40 45 49 49 51 51 51 53 49 46 41 39 38 41
12 16 19 20 21 21 21 22 23 22 23 26 32 39 46 47 45 44 46 47 50 52 54 53 53 52 52 49 49 47 45 51 51 56 55 57 57 53 51 48 43 43 43
7 11 16 18 21 24 27 28 27 27 27 28 30 35 40 45 49 52 51 50 49 53 57 57 56 56 56 55 52 53 51 51 55 58 58 62 63 59 59 54 50 49 49
5 10 14 15 19 23 28 31 35 35 34 32 33 34 35 38 45 48 52 52 51 51 55 60 62 61 60 59 60 56 55 54 59 62 62 66 68 67 68 64 59 55 55
7 11 15 20 25 29 33 36 38 39 37 36 36 38 37 39 37 40 47 51 54 53 51 57 61 65 66 63 63 63 58 61 61 67 68 70 71 73 74 71 67 64 62
5 13 20 25 31 33 36 39 41 43 43 39 37 38 40 42 43 48 45 46 51 52 57 57 59 63 69 70 66 64 68 66 68 71 74 74 77 77 78 78 73 70 69
7 11 17 24 29 34 39 42 41 43 42 42 40 40 43 45 45 48 53 53 52 54 51 54 57 65 71 76 74 75 74 75 75 77 80 78 81 80 85 82 81 74 73
6 16 22 26 30 35 38 40 43 45 47 45 43 45 51 53 57 57 55 57 59 57 59 56 47 49 60 76 83 85 84 83 86 85 86 85 86 88 89 89 86 81 77
6 12 19 26 31 35 37 39 43 46 48 50 46 44 49 58 63 66 67 63 60 64 64 65 72 64 56 60 80 88 94 91 91 93 93 90 91 94 96 98 95 89 84
8 12 18 25 29 32 36 40 44 49 54 55 56 54 54 58 64 68 71 69 68 65 68 72 72 84 76 65 61 87 90 100 99 97 97 96 97 98 102 101 102 97 93
8 14 19 23 28 33 39 42 45 50 55 60 62 65 69 73 73 74 77 77 71 71 72 74 78 80 88 81 69 64 90 97 103 101 98 97 100 103 106 106 106 102 98
10 14 19 25 29 34 41 45 49 53 58 61 63 68 72 76 79 82 85 84 80 77 74 79 82 85 85 90 85 71 73 100 104 106 102 100 102 107 112 112 108 104 103
14 19 21 27 33 38 43 47 50 56 59 63 66 69 73 75 79 84 87 89 85 80 80 77 77 79 84 92 94 82 66 83 105 105 108 104 104 104 112 112 112 107 105
19 22 23 29 35 41 48 51 55 58 61 65 69 71 75 78 81 85 87 91 93 92 85 78 71 71 82 83 95 99 87 66 82 108 113 107 104 101 110 107 111 110 106
21 22 25 32 39 45 50 60 65 66 67 69 73 76 77 81 85 92 97 98 97 90 84 81 70 73 79 74 78 98 111 88 79 104 108 112 103 106 113 108 107 106 106
23 21 25 33 41 45 51 57 61 68 72 73 78 80 84 87 89 95 100 100 93 91 82 73 75 74 77 66 57 59 60 90 73 98 113 117 107 112 113 114 116 116 111
22 22 26 34 41 46 52 56 60 67 73 80 82 84 87 91 97 99 99 97 88 79 76 64 61 67 79 71 60 49 28 36 46 67 99 105 110 111 114 116 118 119 122
21 20 25 33 42 47 52 57 61 68 75 78 84 86 89 92 96 101 102 95 91 89 85 81 77 65 73 84 68 63 64 68 43 55 35 92 97 111 111 110 118 122 125
19 19 25 34 42 47 51 57 61 66 71 79 85 90 93 96 96 100 102 96 90 91 84 79 81 72 66 82 82 67 66 66 78 57 75 77 96 108 105 98 94 99 113
18 19 25 36 42 47 53 56 60 66 72 79 85 92 95 98 100 101 101 101 91 87 72 68 70 77 76 66 79 82 76 60 58 70 71 73 101 89 105 116 104 99 89
Wind_Direction_850mb
11 12 8 12 13 348 328 301 298 299 303 312 314 308 297 293 292 288 286 287 279 272 272 273 274 275 274 276 267 244 250 252 252 254 244 251 254 235 228 224 216 207 197
6 1 9 17 22 23 319 300 308 296 294 300 307 304 300 291 287 289 292 292 294 292 282 273 270 273 276 271 271 258 245 249 245 253 250 252 253 237 223 218 214 208 199
342 336 339 4 25 34 321 308 300 305 304 301 300 298 299 298 292 290 293 292 293 298 298 291 278 268 271 273 267 260 250 251 249 243 248 247 245 239 222 215 206 206 203
336 333 344 335 329 272 229 235 278 287 287 291 294 294 293 292 290 290 293 292 293 295 296 295 283 274 267 269 266 259 253 250 251 245 242 239 239 230 221 210 207 204 202
326 351 1 338 326 293 246 232 240 255 264 285 285 289 288 288 288 286 287 288 288 290 291 292 292 279 268 262 264 257 251 252 251 244 244 242 232 226 221 211 208 203 205
349 5 6 8 0 348 332 284 263 263 259 261 269 275 278 281 281 281 280 283 283 284 286 288 287 284 274 266 264 259 249 251 251 248 239 240 231 227 221 218 217 212 208
58 57 55 51 43 28 15 357 335 310 296 285 278 273 274 276 275 276 281 281 282 282 281 282 284 283 276 270 264 264 254 249 251 248 242 235 232 228 223 220 216 219 213
60 55 51 45 39 34 28 19 9 352 328 303 286 279 273 273 273 276 276 278 280 280 280 280 279 278 276 273 269 264 264 251 251 250 243 236 233 225 222 221 220 216 212
62 59 50 37 25 14 6 357 348 336 325 322 313 298 282 278 273 272 276 277 278 278 278 278 276 274 273 271 267 265 263 259 252 250 244 237 232 224 222 220 221 219 213
87 52 41 25 14 4 356 349 342 332 318 305 298 297 301 292 278 274 271 271 271 274 279 279 275 272 271 268 266 264 262 259 254 251 245 239 231 227 221 221 223 222 216
54 29 15 10 6 3 357 349 342 336 327 319 307 296 291 292 298 283 273 273 268 268 272 276 276 274 272 268 265 264 260 259 255 250 247 240 233 230 222 221 223 223 220
1 5 7 3 1 0 360 357 351 346 342 336 329 323 314 304 298 295 294 288 275 271 267 267 269 270 267 269 264 261 260 260 258 253 248 243 239 227 224 222 225 223 221
351 353 356 358 359 1 3 1 356 353 346 343 340 336 333 327 316 303 293 293 292 279 277 274 269 270 268 266 264 262 260 260 259 257 251 245 240 227 225 224 225 223 221
342 358 3 1 1 2 2 356 354 352 352 351 346 339 336 331 329 324 315 304 297 292 286 277 281 279 278 271 264 260 261 260 258 256 254 248 240 231 226 225 225 226 223
329 334 349 351 356 356 353 351 352 352 350 349 345 340 334 333 332 326 322 315 302 298 294 284 275 276 278 279 272 264 259 259 258 255 254 251 244 235 229 226 226 227 227
338 338 347 350 352 349 350 352 353 350 348 344 341 342 340 335 331 329 325 319 311 303 299 295 286 274 276 275 280 270 266 258 259 257 253 250 245 238 232 228 228 229 229
327 333 340 348 350 348 350 351 350 347 342 339 339 338 339 339 336 331 327 324 317 306 299 294 292 286 276 271 277 278 268 264 256 259 255 249 245 238 233 232 230 230 229
322 331 340 342 343 346 346 346 346 343 339 335 336 338 338 337 336 331 328 326 322 313 300 292 293 291 285 277 275 272 272 265 261 257 256 249 243 240 235 232 233 228 230
300 322 329 337 339 341 342 342 342 338 336 336 336 335 335 333 331 329 326 324 321 311 305 298 286 289 289 282 276 271 271 263 259 260 254 250 241 241 235 232 233 230 227
287 313 325 337 339 339 339 338 336 335 334 333 334 334 335 333 329 326 322 319 320 314 301 292 288 278 281 287 283 274 268 259 263 256 254 248 239 237 234 234 232 231 230
280 304 324 334 336 337 338 336 335 336 335 333 331 333 334 335 334 331 329 327 322 314 303 282 283 280 276 282 293 280 268 267 259 248 248 244 241 230 233 233 234 227 226
276 306 324 333 336 336 337 337 336 333 332 331 331 332 335 336 334 332 330 327 321 312 304 293 271 281 278 276 280 289 291 270 273 242 238 240 241 234 230 232 233 229 227
275 305 323 333 334 334 334 332 330 326 325 327 329 331 331 332 333 331 330 327 320 309 300 288 278 276 271 268 266 269 281 246 293 239 238 236 239 236 231 231 230 229 228
268 302 320 329 332 333 333 331 329 327 326 325 325 326 327 328 328 330 329 325 316 308 297 277 271 268 270 263 264 257 262 252 260 286 240 229 237 232 233 229 231 228 227
263 296 316 330 332 331 333 330 326 323 321 321 323 323 326 324 326 328 326 321 312 304 297 283 271 269 268 263 260 254 264 261 253 249 275 287 222 227 231 226 220 221 225
269 298 319 329 329 331 329 327 325 322 321 322 324 322 323 323 324 326 323 317 311 301 295 285 275 259 261 260 259 253 259 260 255 239 252 272 261 209 220 216 213 215 216